Location: Montbazon
(47.2835°N, 0.6999°E)
Time: 17:26:22
(UTC+00:00)

Gbstr 26 Del rocket - Pass Details

Date: 08 November 2025
Orbit: 489 x 1219 km, 51.8° (Epoch: 10 December)

Event Time Altitude Azimuth Distance (km) Brightness Sun altitude
Exits shadow 05:41:14 15° 261° (W) 1,871 4.9 -12.1°
Maximum altitude 05:45:28 69° 343° (NNW) 866 3.7 -11.4°
Drops below altitude 10° 05:51:42 10° 67° (ENE) 2,670 7.2 -10.4°
Sets 05:54:36 0° 70° (ENE) 3,737 8.1 -9.9°
